User: anonymous   Login
Location: Livonia
(42.3680°N, 83.3530°W)
Time: 12:49:11
(UTC-04:00)
Language:

MOZ.5/SAFIR/RUBIN 5/SL-8 - Orbit

View from above orbital plane
View from above orbital plane
View from above satellite
View from above satellite

Ground track
Ground track

The orbit data is extracted from the following two-line orbital elements,

1 28898U 05043G   16180.03973213  .00000060  00000-0  21675-4 0  9992
2 28898  97.8808 340.2245 0018954 218.2817 141.7039 14.60106643568154
Epoch (UTC): 28 June 2016 00:57:12
Eccentricity: 0.0018954
inclination: 97.8808°
perigee height: 679 km
apogee height: 706 km
right ascension of ascending node: 340.2245°
argument of perigee: 218.2817°
revolutions per day: 14.60106643
mean anomaly at epoch: 141.7039°
orbit number at epoch: 56815

The dashed part of the orbit path shows where the satellite is in the earth's shadow,  

DLR